Regional Weather Roundup
Issued by NWS

Home | Current Version | Previous Version | Graphics & Text | Print | Product List | Glossary On
Versions: 1 2 3 4 5 6 7 8 9 10 11 12 13 14 15 16 17 18 19 20 21 22 23 24 25 26 27 28 29 30 31 32 33 34 35 36 37 38 39 40 41 42 43 44 45 46 47 48 49 50
884
ASUS43 KDTX 241510
RWRMI
MICHIGAN HOURLY REGIONAL WEATHER ROUNDUP
NATIONAL WEATHER SERVICE DETROIT/PONTIAC MI
1100 AM EDT SAT SEP 24 2016

NOTE: "FAIR" INDICATES FEW OR NO CLOUDS BELOW 12,000 FEET WITH NO
SIGNIFICANT WEATHER AND/OR OBSTRUCTION TO VISIBILITY.

MIZ047>049-052>055-059>063-066>070-074>076-081>083-241600-
SOUTHEAST LOWER MICHIGAN

CITY           SKY/WX    TMP DP  RH WIND       PRES   REMARKS
ADRIAN         CLOUDY    65  54  67 E9        30.26S
ALMA           PTSUNNY   60  52  74 NE7G16    30.31R
ANN ARBOR      MOSUNNY   63  52  67 NE9       30.26R
BAD AXE        MOSUNNY   60  46  58 E7        30.32R
CARO           SUNNY     61  49  65 E7        30.29F
DETROIT CITY   SUNNY     64  54  69 NE9       30.27S
DETROIT        PTSUNNY   64  54  69 NE9       30.27R
FLINT          CLOUDY    60  53  77 E10       30.29S
GROSSE ILE     SUNNY     65  51  59 NE15      30.26R
HILLSDALE      CLOUDY    61  50  67 E7        30.25R
HOWELL         CLOUDY    61  52  72 E8        30.27F

CITY           SKY/WX    TMP DP  RH WIND       PRES   REMARKS
JACKSON        MOSUNNY   63  55  75 NE10      30.26S
LAMBERTVILLE   CLOUDY    65  55  70 NE5       30.25R
LANSING        CLOUDY    60  51  72 E10       30.28F
LAPEER         CLOUDY    61  51  70 E8        30.29S
MASON          CLOUDY    60  52  74 E7        30.27F
MONROE         PTSUNNY   65  54  67 NE9G16    30.25R
MT. CLEMENS    PTSUNNY   61  52  70 NE12      30.26S
PONTIAC        PTSUNNY   60  49  66 NE13      30.27S
PORT HOPE        N/A     61  48  62 E13       30.31R
PORT HURON     CLOUDY    61  50  67 NE9       30.29S
TRI CITIES     CLOUDY    63  49  60 E12       30.31S
MIDLAND        FAIR      61  50  67 CALM      30.30S
TROY           MOSUNNY   63  50  61 NE9       30.29S
SAGINAW HB     CLOUDY    61  48  63 E9        30.30R
$$
MIZ043>046-050>051-056>058-064>065-071>073-077>080-241600-
SOUTHWEST LOWER MICHIGAN

CITY           SKY/WX    TMP DP  RH WIND       PRES   REMARKS
BATTLE CREEK   MOSUNNY   64  54  69 E9        30.26R
BENTON HARBOR  CLOUDY    64  55  72 E9        30.23R
BIG RAPIDS     CLOUDY    59  52  77 E7        30.30R
COLDWATER      CLOUDY    63  54  73 E7        30.25S
FREMONT        FAIR      60  49  68 E10G17    30.28S
HOLLAND        SUNNY     65  54  67 E10       30.25S
GRAND RAPIDS   CLOUDY    61  51  70 E13       30.27S
IONIA          FAIR      59  50  73 E10       30.28S
KALAMAZOO      CLOUDY    61  53  75 E6        30.26R
LUDINGTON      CLOUDY    61  51  70 E13       30.28S
MARSHALL       MOSUNNY   65  53  65 E7        30.25S
MOUNT PLEASANT CLOUDY    58  52  78 E3        30.30S
MUSKEGON       CLOUDY    63  52  67 E16       30.26F
SOUTH HAVEN    CLOUDY    63  59  85 E7        30.24R
$$
MIZ016>042-241600-
NORTHERN LOWER MICHIGAN

CITY           SKY/WX    TMP DP  RH WIND       PRES   REMARKS
ALPENA         SUNNY     62  41  46 NE10      30.34S
BEAVER ISLAND  CLOUDY    60  49  66 SE7       30.33S
BELLAIRE       SUNNY     62  46  57 E7        30.33S
CADILLAC       SUNNY     59  49  68 E10       30.30S
CHARLEVOIX     SUNNY     60  47  62 E9        30.35F
FRANKFORT      CLOUDY    61  48  61 SE10      30.30F
GAYLORD        SUNNY     59  41  51 VRB7      30.33S
GRAYLING       SUNNY     60  47  61 E8        30.33S
HARBOR SPRINGS SUNNY     59  49  68 E5        30.34S
HOUGHTON LAKE  SUNNY     59  45  59 E10       30.33S
MANISTEE       SUNNY     61  51  70 E9        30.29F
OSCODA         MOSUNNY   62  44  51 NE9       30.32R
PELLSTON       SUNNY     60  46  59 VRB6      30.35S
ROGERS CITY    SUNNY     62  41  46 E7        30.35S
TRAVERSE CITY  MOSUNNY   62  48  60 E12       30.31S
$$
MIZ007>008-015-241600-
EASTERN UPPER MICHIGAN

CITY           SKY/WX    TMP DP  RH WIND       PRES   REMARKS
KINROSS        SUNNY     59  44  57 VRB6      30.35S
MACKINAC ISLAN SUNNY     60  49  67 E6        30.34S
NEWBERRY       SUNNY     59  51  75 SE7       30.32F
S. S. MARIE    SUNNY     59  48  67 VRB3      30.34S
MUNISING         N/A     58  50  75 S6        30.30S
$$
MIZ004>006-011>014-085-241600-
CENTRAL UPPER MICHIGAN

CITY           SKY/WX    TMP DP  RH WIND       PRES   REMARKS
MANISTIQUE     PTSUNNY   60  49  66 SE9       30.31F
ESCANABA       CLOUDY    62  50  64 SE12      30.30F
MENOMINEE      PTSUNNY   64  51  62 SE14      30.30S
SAWYER-GWINN   MOSUNNY   55  48  76 S8        30.30S
$$
MIZ001>003-009>011-084-241600-
WESTERN UPPER MICHIGAN

CITY           SKY/WX    TMP DP  RH WIND       PRES   REMARKS
IRON MOUNTAIN  PTSUNNY   59  49  69 SE8       30.28F
HOUGHTON       CLOUDY    58  50  75 SE8       30.26F
COPPER HARBOR    N/A     61  52  72 VRB5      30.26F
IRONWOOD       CLOUDY    62  54  74 S8        30.22S
$$

ABBREVIATIONS USED IN REMARKS
   TC - TEMPERATURE IN CELSIUS
  WCI - WIND CHILL INDEX
   HX - HEAT INDEX
  VSB - VISIBILITY





USA.gov is the U.S. government's official web portal to all federal, state and local government web resources and services.